SL-4 R/B (49270 NORAD) Tracking and Keplerian Element Data

This shows tracking and keplerian element data for the satellite.

Feedback or suggestion? Click here.




ElementValue
Catalog49270
NameSL-4 R/B
Epoch Orbit42
Epoch Day280.99805854
Epoch Year2021
RAAN143.3545
Inclination51.6361
Eccentricity0.0005158
Argument of Perigee52.4118
Mean Anonmoly308.121
Mean Motion16.45413152
Decay Rate0.12424559
L11 49270U 21089B 21280.99805854 .12424559 12602-4 33508-3 0 9992
L22 49270 51.6361 143.3545 0005158 52.4118 308.1210 16.45413152 424

Live tracking and technical data element details for SL-4 R/B (NORAD 49270). SL-4 R/B can be tracked NOW for your location showing map with azimuth and elevation plus other details from your city location.

Track the satellite on the map from your city or location and see movement details for azimuth, elevation, latitude, longitude, range, height, and movement on the map or in text.







IsCatalogInMostPopularTable: catalog: 49270, numindb: 9
Update: records affected: 1



GetName: 49270 SL-4 R/B

Hit Count: updated at: Mon, 06 Dec 2021 15:29:55 GMT